Historyczne dane pomiarowe

Dodano dane terminowe – wersja testowa.

Dane z okresu 1951-2019

Wersja bazy: 1.34 [2019-03-16, lista zmian], aktualizacja planowana na 2019-04-15

Dane meteo z obszaru Polski uzyskane na podstawie danych udostępnionych przez Instytut Meteorologii i Gospodarki Wodnej – Państwowy Instytut Badawczy.

 

Wybierz Datę:    

       

TemperaturaWilgotnośćWiatrCiśnienieOpadyŚniegCzas trwania zjawisk
 Stacja t tx tn tng RH VA  wxwx mslp ppp RRR   cm mm wxwxwxwxwxwxwx
2019-08-31 22.1 29.0 16.1 15.7 75.3 19.2- 1.9--1020.6 995.2 0.0 0.0 0.0x- 11.2-------
2019-08-30 20.8 27.5 17.5 16.1 84.3 20.5- 2.0--1021.4 995.8 2.7 2.7 0.0x- 5.9-------
2019-08-29 24.5 31.0 18.1 16.6 68.0 20.2- 2.0--1018.2 993.0 0.0 0.0 0.0x- 11.9-------
2019-08-28 23.9 30.7 17.4 16.5 62.8 18.4- 2.3--1019.9 994.6 0.0 0.0 0.0x- 12.3-------
2019-08-27 24.0 30.6 17.6 15.2 58.0 16.8- 2.4--1021.5 996.1 0.0 0.0 0.0x- 12.5-------
2019-08-26 23.7 30.1 17.3 16.2 58.0 16.8- 2.3--1022.2 996.8 0.0 0.0 0.0x- 12.7-------
2019-08-25 21.9 28.6 15.5 14.5 60.9 15.7- 2.5--1023.3 997.8 0.0 0.0 0.0x- 12.6-------
2019-08-24 20.1 25.9 14.1 13.2 65.5 15.1- 2.3--1025.5 999.7 0.0 0.0 0.0x- 12.9-------
2019-08-23 18.9 24.4 13.7 12.7 71.5 15.3- 2.4--1027.51001.6 0.0 0.0 0.0x- 8.8-------
2019-08-22 17.6 22.0 13.3 12.9 78.6 15.4- 1.9--1028.71002.6 0.0 0.0 0.0x- 6.1-------
2019-08-21 18.7 22.5 16.4 16.0 86.8 18.9- 3.3--1023.1 997.2 0.0 0.0 0.0x- 3.4-------
2019-08-20 21.0 25.7 17.4 17.1 82.4 20.3- 2.8--1020.9 995.3 15.0 0.0 15.0x- 7.4-------
2019-08-19 23.7 31.1 16.9 15.5 70.5 20.2- 3.0--1015.2 989.9 0.0 0.0 0.0x- 10.7-------
2019-08-18 20.7 27.0 14.7 13.7 73.0 17.2- 2.9--1013.0 987.6 0.0 0.0 0.0x- 12.0-------
2019-08-17 19.5 24.1 14.0 13.2 75.6 16.7- 1.6--1015.8 990.2 0.0 0.0 0.0x- 9.8-------
2019-08-16 17.8 23.2 10.7 9.2 69.9 13.9- 1.8--1016.1 990.3 0.0 0.0 0.0x- 10.1-------
2019-08-15 15.6 22.2 9.1 7.9 70.9 11.8- 1.3--1016.9 991.0 0.0 0.0 0.0x- 12.2-------
2019-08-14 14.5--- 97.3------- 10.0 10.0 0.0x- 0.6-------
2019-08-13 19.3 26.6 16.8 16.6 87.9 19.5- 2.3--1014.7 989.1 0.2 0.2 0.0x- 3.9-------
2019-08-12 23.5 31.0 16.4 15.6 73.1 21.1- 1.9--1013.4 988.2 17.3 0.0 17.3x- 9.9-------
2019-08-11 21.9 27.1 16.8 16.4 69.3 17.5- 2.1--1017.3 991.9 0.0 0.0 0.0x- 12.5-------
2019-08-10 21.6 29.0 13.4 11.7 69.6 17.8- 2.6--1014.2 988.8 10.2 0.0 10.2x- 7.1-------
2019-08-09 21.0 27.8 14.6 13.9 63.4 15.0- 2.6--1013.2 987.9 0.0 0.0 0.0x- 12.6-------
2019-08-08 20.4 25.1 17.7 17.6 76.0 17.8- 3.4--1009.1 983.8 0.1 0.1 0.0x- 9.1-------
2019-08-07 20.6 28.1 17.1 17.1 86.1 20.7- 2.8--1009.0 983.7 15.5 10.4 5.1x- 8.0-------
2019-08-06 21.3 28.1 15.4 15.3 71.0 17.2- 2.4--1011.5 986.2 0.2 0.0 0.2x- 10.6-------
2019-08-05 19.0 23.9 14.4 13.6 67.8 14.7- 2.1--1012.9 987.4 0.1 0.0 0.1x- 8.5-------
2019-08-04 17.1 24.1 11.4 10.6 70.3 13.4- 2.6--1012.9 987.1 0.1 0.1 0.0x- 7.6-------
2019-08-03 17.8 23.1 12.8 11.9 66.8 13.1- 1.9--1010.7 985.1 0.0 0.0 0.0x- 8.5-------
2019-08-02 18.3 23.7 14.2 13.8 73.1 15.0- 2.5--1012.9 987.3 0.0 0.0 0.0x- 9.8-------
2019-08-01 18.9 24.5 15.5 15.8 76.6 16.5- 2.0--1014.4 988.8 0.5 0.5 0.0x- 3.3-------
2019-07-31 21.9--- 74.9------- 0.0 0.0 0.0x- 7.8-------
2019-07-30 23.3 30.3 18.3 18.2 77.4 21.5- 2.3--1007.0 982.0 0.0 0.0 0.0x- 9.8-------
2019-07-29 22.1 31.4 18.3 17.4 80.1 21.0- 1.6--1005.5 980.4 3.2 3.2 0.0x- 6.9-------
2019-07-28 25.9 32.1 19.2 18.6 61.4 19.7- 2.6--1004.3 979.5 0.0 0.0 0.0x- 13.8-------
2019-07-27 22.1 28.0 15.1 14.3 65.1 16.9- 3.0--1007.7 982.5 0.0 0.0 0.0x- 11.3-------
2019-07-26 22.1 27.2 17.6 17.4 61.3 15.9- 2.5--1011.6 986.3 0.0 0.0 0.0x- 11.4-------
2019-07-25 21.9 28.1 15.5 15.1 67.5 16.9- 2.3--1017.9 992.5 0.0 0.0 0.0x- 13.7-------
2019-07-24 18.6 21.4 15.6 14.8 84.6 18.1- 1.6--1018.6 992.9 0.5 0.5 0.0x- 1.3-------
2019-07-23 18.3 22.1 16.6 16.8 76.6 16.1- 2.5--1019.3 993.5 0.0 0.0 0.0x- 1.4-------
2019-07-22 20.7 26.3 15.6 14.8 70.1 16.4- 2.6--1020.4 994.8 0.0 0.0 0.0x- 11.6-------
2019-07-21 20.1 27.8 16.1 15.7 83.6 19.4- 1.8--1017.5 991.9 17.7 17.6 0.1x- 7.6-------
2019-07-20 21.4 28.2 15.8 15.4 67.6 16.7- 1.9--1016.7 991.2 0.0 0.0 0.0x- 10.8-------
2019-07-19 20.0 27.9 11.7 9.5 56.9 12.6- 2.8--1014.8 989.3 1.3 0.0 1.3x- 9.3-------
2019-07-18 17.5 23.5 10.3 9.1 59.3 11.4- 2.1--1013.5 987.8 0.0 0.0 0.0x- 10.4-------
2019-07-17 15.4 21.4 9.5 8.9 67.5 11.4- 3.5--1011.1 985.3 0.0 0.0 0.0x- 5.8-------
2019-07-16 15.5 20.3 9.4 6.9 64.1 11.3- 3.4--1012.0 986.1 0.0 0.0 0.0x- 9.1-------
2019-07-15 16.6 23.4 9.2 8.5 58.3 10.5- 2.4--1012.8 987.1 0.0 0.0 0.0x- 12.9-------
2019-07-14 16.4 22.0 13.6 13.6 76.8 14.2- 2.5--1011.2 985.4 0.8 0.8 0.0x- 6.1-------
2019-07-13 17.4 24.4 12.3 11.8 71.0 13.8- 1.8--1009.6 984.0 0.6 0.0 0.6x- 3.4-------
2019-07-12 18.0 24.4 9.4 7.4 58.6 11.6- 2.0--1010.8 985.2 0.0 0.0 0.0x- 12.0-------
2019-07-11 14.7 19.6 11.5 11.0 71.4 11.8- 3.0--1011.6 985.7 0.0 0.0 0.0x- 7.9-------
2019-07-10 14.0 18.2 11.6 11.5 82.9 13.2- 3.0--1011.9 986.0 0.7 0.1 0.6x- 2.1-------
2019-07-09 14.2 20.0 8.8 8.2 64.9 10.4- 3.5--1012.8 986.8 2.9 2.3 0.6x- 6.0-------
2019-07-08 14.6 19.6 11.8 11.6 60.1 9.9- 3.1--1012.0 986.1 0.1 0.0 0.1x- 6.3-------
2019-07-07 17.3 22.2 14.7 14.5 69.1 13.6- 3.1--1006.5 981.0 0.0 0.0 0.0x- 7.4-------
2019-07-06 18.4 24.8 10.8 10.3 65.6 13.7- 2.3--1009.8 984.3 0.0 0.0 0.0x- 3.6-------
2019-07-05 16.6 21.8 10.3 9.7 57.6 10.6- 3.1--1013.6 987.8 0.0 0.0 0.0x- 1.4-------
2019-07-04 17.2 22.5 10.8 8.9 48.9 9.2- 2.5--1019.9 994.0 0.0 0.0 0.0x- 10.9-------
2019-07-03 16.9 21.9 12.6 11.9 52.8 9.8- 3.6--1018.8 992.9 0.0 0.0 0.0x- 13.9-------
77.5 ms

 

Źródłem pochodzenia danych jest Instytut Meteorologii i Gospodarki Wodnej – Państwowy Instytut Badawczy. Dane Instytutu Meteorologii i Gospodarki Wodnej – Państwowego Instytutu Badawczego zostały przetworzone.

Dane źródłowe można odnaleźć na stronie https://dane.imgw.pl